Time,TemperatureF,DewpointF,PressureIn,WindDirection,WindDirectionDegrees,WindSpeedMPH,WindSpeedGustMPH,Humidity,HourlyPrecipIn,Conditions,Clouds,dailyrainin,SoftwareType,DateUTC
2013-02-24 00:00:00,25.5,20.5,29.98,WNW,291,9.0,13.0,81,0.00,,---,0.00,VWS V14.00,2013-02-24 05:00:00,
2013-02-24 00:30:00,25.6,20.9,29.99,WNW,299,6.0,11.0,82,0.00,,---,0.00,VWS V14.00,2013-02-24 05:30:00,
2013-02-24 01:00:00,25.8,20.8,29.99,West,269,6.0,10.0,81,0.00,,---,0.00,VWS V14.00,2013-02-24 06:00:00,
2013-02-24 01:30:00,26.0,21.0,29.99,West,280,5.0,11.0,81,0.00,,---,0.00,VWS V14.00,2013-02-24 06:30:00,
2013-02-24 02:00:00,26.0,21.0,30.00,WSW,257,4.0,10.0,81,0.00,,---,0.00,VWS V14.00,2013-02-24 07:00:00,
2013-02-24 02:30:00,26.1,21.1,30.01,WNW,298,7.0,18.0,81,0.00,,---,0.00,VWS V14.00,2013-02-24 07:30:00,
2013-02-24 03:00:00,26.1,21.1,30.01,WNW,292,7.0,14.0,81,0.00,,---,0.00,VWS V14.00,2013-02-24 08:00:00,
2013-02-24 03:30:00,26.1,20.8,30.00,WNW,290,6.0,11.0,80,0.00,,---,0.00,VWS V14.00,2013-02-24 08:30:00,
2013-02-24 04:00:00,25.9,21.7,30.01,WNW,284,10.0,11.0,84,0.00,,---,0.00,VWS V14.00,2013-02-24 09:00:00,
2013-02-24 04:30:00,24.9,21.3,30.01,West,278,7.0,11.0,86,0.00,,---,0.00,VWS V14.00,2013-02-24 09:30:00,
2013-02-24 05:00:00,24.0,20.7,30.02,West,263,3.0,9.0,87,0.00,,---,0.00,VWS V14.00,2013-02-24 10:00:00,
2013-02-24 05:30:00,23.0,20.0,30.04,West,274,4.0,6.0,88,0.00,,---,0.00,VWS V14.00,2013-02-24 10:30:00,
2013-02-24 06:00:00,22.8,20.0,30.05,West,273,5.0,6.0,89,0.00,,---,0.00,VWS V14.00,2013-02-24 11:00:00,
2013-02-24 06:30:00,22.2,19.5,30.05,WSW,249,2.0,6.0,89,0.00,,---,0.00,VWS V14.00,2013-02-24 11:30:00,
2013-02-24 07:00:00,21.4,18.9,30.07,SW,215,2.0,5.0,90,0.00,,---,0.00,VWS V14.00,2013-02-24 12:00:00,
2013-02-24 07:30:00,21.1,18.6,30.07,West,259,3.0,7.0,90,0.00,,---,0.00,VWS V14.00,2013-02-24 12:30:00,
2013-02-24 08:00:00,20.8,18.3,30.08,SSW,210,1.0,5.0,90,0.00,,---,0.00,VWS V14.00,2013-02-24 13:00:00,
2013-02-24 08:30:00,21.0,18.3,30.09,SSW,212,3.0,5.0,89,0.00,,---,0.00,VWS V14.00,2013-02-24 13:30:00,
2013-02-24 09:00:00,21.9,18.9,30.11,WSW,245,5.0,11.0,88,0.00,,---,0.00,VWS V14.00,2013-02-24 14:00:00,
2013-02-24 09:30:00,23.0,19.5,30.11,West,271,4.0,7.0,86,0.00,,---,0.00,VWS V14.00,2013-02-24 14:30:00,
2013-02-24 10:00:00,24.4,20.8,30.11,West,271,5.0,7.0,86,0.00,,---,0.00,VWS V14.00,2013-02-24 15:00:00,
2013-02-24 10:30:00,26.3,22.1,30.11,West,262,3.0,6.0,84,0.00,,---,0.00,VWS V14.00,2013-02-24 15:30:00,
2013-02-24 11:00:00,28.1,23.0,30.12,West,276,6.0,6.0,81,0.00,,---,0.00,VWS V14.00,2013-02-24 16:00:00,
2013-02-24 11:30:00,29.4,23.7,30.14,West,263,4.0,8.0,79,0.00,,---,0.00,VWS V14.00,2013-02-24 16:30:00,
2013-02-24 12:00:00,30.2,23.6,30.14,WSW,248,7.0,10.0,76,0.00,,---,0.00,VWS V14.00,2013-02-24 17:00:00,
2013-02-24 12:30:00,31.0,24.0,30.14,WNW,286,4.0,10.0,75,0.00,,---,0.00,VWS V14.00,2013-02-24 17:30:00,
2013-02-24 13:00:00,31.7,23.7,30.14,WSW,253,4.0,11.0,72,0.00,,---,0.00,VWS V14.00,2013-02-24 18:00:00,
2013-02-24 13:30:00,32.8,23.4,30.14,West,269,6.0,9.0,68,0.00,,---,0.00,VWS V14.00,2013-02-24 18:30:00,
2013-02-24 14:00:00,33.4,24.7,30.13,West,264,5.0,10.0,70,0.00,,---,0.00,VWS V14.00,2013-02-24 19:00:00,
2013-02-24 14:30:00,33.9,23.8,30.12,WNW,293,1.0,9.0,66,0.00,,---,0.00,VWS V14.00,2013-02-24 19:30:00,
2013-02-24 15:00:00,34.3,24.5,30.13,West,265,4.0,9.0,67,0.00,,---,0.00,VWS V14.00,2013-02-24 20:00:00,
2013-02-24 15:30:00,34.9,25.4,30.13,NW,311,5.0,7.0,68,0.01,,---,0.01,VWS V14.00,2013-02-24 20:30:00,
2013-02-24 16:00:00,35.5,25.3,30.13,WNW,294,0.0,9.0,66,0.01,,---,0.01,VWS V14.00,2013-02-24 21:00:00,
2013-02-24 16:30:00,35.8,24.8,30.14,West,260,3.0,7.0,64,0.01,,---,0.01,VWS V14.00,2013-02-24 21:30:00,
2013-02-24 17:00:00,36.2,25.6,30.14,NW,309,4.0,6.0,65,0.00,,---,0.01,VWS V14.00,2013-02-24 22:00:00,
2013-02-24 17:30:00,36.7,25.7,30.14,West,260,2.0,6.0,64,0.00,,---,0.01,VWS V14.00,2013-02-24 22:30:00,
2013-02-24 18:00:00,36.4,27.9,30.15,WNW,284,1.0,3.0,71,0.00,,---,0.01,VWS V14.00,2013-02-24 23:00:00,
2013-02-24 18:30:00,34.7,25.2,30.15,WNW,283,0.0,2.0,68,0.00,,---,0.01,VWS V14.00,2013-02-24 23:30:00,
2013-02-24 19:00:00,31.7,24.4,30.15,East,86,0.0,1.0,74,0.00,,---,0.01,VWS V14.00,2013-02-25 00:00:00,
2013-02-24 19:30:00,29.9,24.2,30.16,East,86,0.0,1.0,79,0.00,,---,0.01,VWS V14.00,2013-02-25 00:30:00,
2013-02-24 20:00:00,28.5,23.4,30.17,ESE,113,0.0,1.0,81,0.00,,---,0.01,VWS V14.00,2013-02-25 01:00:00,
2013-02-24 20:30:00,27.6,23.7,30.17,ESE,113,0.0,1.0,85,0.00,,---,0.01,VWS V14.00,2013-02-25 01:30:00,
2013-02-24 21:00:00,26.9,23.3,30.17,ESE,113,0.0,1.0,86,0.00,,---,0.01,VWS V14.00,2013-02-25 02:00:00,
2013-02-24 21:30:00,26.3,23.5,30.17,ESE,113,0.0,1.0,89,0.00,,---,0.01,VWS V14.00,2013-02-25 02:30:00,
2013-02-24 22:00:00,25.7,22.6,30.18,ESE,113,0.0,1.0,88,0.00,,---,0.01,VWS V14.00,2013-02-25 03:00:00,
2013-02-24 22:30:00,25.2,22.4,30.18,ESE,113,0.0,1.0,89,0.00,,---,0.01,VWS V14.00,2013-02-25 03:30:00,
2013-02-24 23:00:00,24.8,22.3,30.18,ESE,113,0.0,1.0,90,0.00,,---,0.01,VWS V14.00,2013-02-25 04:00:00,
2013-02-24 23:30:00,24.6,22.4,30.18,ESE,113,0.0,1.0,91,0.00,,---,0.01,VWS V14.00,2013-02-25 04:30:00,